Regional Weather Roundup
Issued by NWS Northern Indiana

Home | Current Version | Previous Version | Text Only | Print | Product List | Glossary Off
Versions: 1 2 3 4 5 6 7 8 9 10 11 12 13 14 15 16 17 18 19 20 21 22 23 24 25 26 27 28 29 30 31 32 33 34 35 36 37 38 39 40 41 42 43 44 45 46 47 48 49 50

000
ASUS43 KIWX 120000
RWRIWX

KIWX WEATHER ROUNDUP
NATIONAL WEATHER SERVICE NORTHERN INDIANA
700 PM EST THU FEB 11 2016

NOTE: "FAIR" INDICATES FEW OR NO CLOUDS BELOW 12,000 FEET WITH NO
SIGNIFICANT WEATHER AND/OR OBSTRUCTIONS TO VISIBILITY.

* THESE STATIONS ARE NOT UNDER NWS QUALITY CONTROL. THEY ALSO MAY NOT
  REPORT WEATHER SUCH AS PRECIPITATION OR FOG.

INZ001>027-120100-
NORTHERN INDIANA

CITY           SKY/WX    TMP DP  RH WIND       PRES   REMARKS
GARY*          PTCLDY    19   5  53 MISG      30.30S
SOUTH BEND     CLEAR     10   3  73 W6        30.29R WCI   0
6HR MIN TEMP:  10; 6HR MAX TEMP:  22; 6HR PCP: TRACE;

ELKHART*       MOCLDY    19  10  68 W8        30.29R WCI   9
GOSHEN         CLOUDY    18   7  62 W8        30.28R WCI   8
6HR MIN TEMP:  16; 6HR MAX TEMP:  21; 6HR PCP: TRACE;

MONTICELLO*    CLEAR     20   2  46 CALM      30.30R
6HR MIN TEMP:  20; 6HR MAX TEMP:  23;

ANGOLA*        CLOUDY    19   9  63 CALM      30.24R
FORT WAYNE     MOCLDY    20  10  65 SW8       30.29R WCI  10
6HR MIN TEMP:  20; 6HR MAX TEMP:  34; 6HR PCP: TRACE;

PERU/GRISSOM   PTCLDY    18   7  62 W3        30.28R
6HR MIN TEMP:  18; 6HR MAX TEMP:  23;


$$
INZ028>050-120100-
CENTRAL INDIANA

CITY           SKY/WX    TMP DP  RH WIND       PRES   REMARKS
LAFAYETTE      CLEAR     20   5  52 NW3       30.31R
6HR MIN TEMP:  19; 6HR MAX TEMP:  24;

KOKOMO*        CLEAR     18   5  57 W3        30.29S
6HR MIN TEMP:  18; 6HR MAX TEMP:  25;

MUNCIE*        PTCLDY    17   5  59 CALM      30.29R
6HR MIN TEMP:  16; 6HR MAX TEMP:  23;

INDIANAPOLIS   MOCLDY    21   8  57 SW9       30.29R WCI  11
6HR MIN TEMP:  20; 6HR MAX TEMP:  27;


$$
MIZ043>046-050>051-056>058-064>065-071>073-077>080-120100-
SOUTHWEST LOWER MICHIGAN

CITY           SKY/WX    TMP DP  RH WIND       PRES   REMARKS
BATTLE CREEK   CLOUDY    19  13  77 W6        30.24R WCI  11
6HR MIN TEMP:  17; 6HR MAX TEMP:  22; 6HR PCP: TRACE;

BENTON HARBOR  CLOUDY    19   8  62 SW12      30.29R WCI   7
6HR MIN TEMP:  17; 6HR MAX TEMP:  21; 6HR PCP: TRACE;

COLDWATER*     CLOUDY    19   7  57 W8        30.24R WCI   9
6HR MIN TEMP:  17; 6HR MAX TEMP:  22;

HILLSDALE*     MOCLDY    17   6  60 SW3       30.21S
6HR MIN TEMP:  17; 6HR MAX TEMP:  21;

HOLLAND        CLOUDY    18   8  65 W5        30.26S WCI  11
6HR MIN TEMP:  18; 6HR MAX TEMP:  21; 6HR PCP: TRACE;

GRAND RAPIDS   MOCLDY    19   7  59 W10       30.24R WCI   7
6HR MIN TEMP:  19; 6HR MAX TEMP:  25;

KALAMAZOO      CLOUDY    19  10  68 W7        30.25R WCI  10
6HR MIN TEMP:  18; 6HR MAX TEMP:  21; 6HR PCP: TRACE;

STURGIS*       CLOUDY    18   6  59 W5        30.25R WCI  11
6HR MIN TEMP:  17; 6HR MAX TEMP:  21;

THREE RIVERS*  CLOUDY    19  10  69 W8        30.27R WCI   8

$$
OHZ001>008-015>018-024>025-120100-
NORTHWEST OHIO

CITY           SKY/WX    TMP DP  RH WIND       PRES   REMARKS
DEFIANCE       MOCLDY    19   8  62 CALM      30.28R
6HR MIN TEMP:  19; 6HR MAX TEMP:  23;

FINDLAY        CLOUDY    18   8  65 W6        30.27R WCI  10
6HR MIN TEMP:  18; 6HR MAX TEMP:  21; 6HR PCP: TRACE;

TOLEDO EXPRESS CLEAR     17   5  59 SW6       30.26R WCI   9
6HR MIN TEMP:  17; 6HR MAX TEMP:  22; 6HR PCP: TRACE;

TOLEDO METCALF CLEAR     19   4  51 W6        30.28R WCI  11
6HR MIN TEMP:  19; 6HR MAX TEMP:  23;

LIMA           MOCLDY    18   9  68 SW7       30.26R WCI   9
6HR MIN TEMP:  18; 6HR MAX TEMP:  21; 6HR PCP: TRACE;


$$
AND FOR LAKE MICHIGAN COASTAL AND OPEN LAKE BUOY OBSERVATIONS

STATION/POSITION TEMP    WIND        PRES    VSBY  WAVE
                 AIR SEA DIR/SP/G                  HT/PER
                 (F)     (DEG/KT/KT) (MB)    (MI)  (FT/S)
CALUMET HARBOR    20      70/  3/  5 1025.0R
MICHIGAN CITY     19     260/  4/  5   N/A
BURNS HARBOR      20      CALM  /  3 1026.4S
SAINT JOSEPH      20     250/  7/ 11 1025.4F

$$
&&



USA.gov is the U.S. government's official web portal to all federal, state and local government web resources and services.